User: anonymous   Login
Location: Presov
(49.0000°N, 21.2500°E)
Time: 09:45:06
(UTC+01:00)
Language:

QB50P2 - Orbit

View from above orbital plane
View from above orbital plane
View from above satellite
View from above satellite

Ground track
Ground track

The orbit data is extracted from the following two-line orbital elements,

1 40032U 14033Y   23341.38462787  .00004341  00000-0  39916-3 0  9991
2 40032  97.9848 284.5415 0012135  79.3142 280.9444 14.95273980513832
Epoch (UTC): 07 December 2023 09:13:51
Eccentricity: 0.0012135
inclination: 97.9848°
perigee height: 573 km
apogee height: 590 km
right ascension of ascending node: 284.5415°
argument of perigee: 79.3142°
revolutions per day: 14.95273980
mean anomaly at epoch: 280.9444°
orbit number at epoch: 51383

The dashed part of the orbit path shows where the satellite is in the earth's shadow,  

DLR